Regional Weather Roundup
Issued by NWS Lake Charles, LA

Home | Current Version | Previous Version | Text Only | Print | Product List | Glossary On
Versions: 1 2 3 4 5 6 7 8 9 10 11 12 13 14 15 16 17 18 19 20 21 22 23 24 25 26 27 28 29 30 31 32 33 34 35 36 37 38 39 40 41 42 43 44 45 46 47 48 49 50
000
ASUS44 KLCH 022010
RWRLCH
RWRLCH
REGIONAL WEATHER ROUNDUP
NATIONAL WEATHER SERVICE LAKE CHARLES LA
200 PM CST MON MAR 02 2015

Note: "fair" indicates few or no clouds below 12,000 feet with no
significant weather and/or obstructions to visibility.


ACROSS SOUTHEAST TEXAS

CITY           SKY/WX    TMP DP  RH WIND       PRES   REMARKS
BEAUMONT       CLOUDY    65  58  78 N8        30.20F
BEAUMONT CITY  CLOUDY    60  56  88 N6        30.21F
ORANGE         CLOUDY    62  58  85 NE5       30.23F
JASPER         CLOUDY    53  51  93 N5        30.26F
$$

ACROSS CENTRAL LOUISIANA

CITY           SKY/WX    TMP DP  RH WIND       PRES   REMARKS
LEESVILLE      CLOUDY    52  50  93 VRB5      30.24F
FULLERTON      CLOUDY    54  48  80 N6        30.22F
ALEXANDRIA INT CLOUDY    49  46  90 N7        30.26F
ESLER FIELD    CLOUDY    48  46  93 VRB5      30.26F
DERIDDER       CLOUDY    55  53  91 CALM      30.25F
OAKDALE        CLOUDY    53  51  90 N7        30.24F
OPELOUSAS      HVY RAIN  50  49  97 N7        30.24F
$$

ACROSS SOUTHWEST AND SOUTH CENTRAL LOUISIANA

CITY           SKY/WX    TMP DP  RH WIND       PRES   REMARKS
SULPHUR        CLOUDY    62  59  89 NE5       30.23F
LAKE CHARLES   CLOUDY    58  56  93 NE7       30.22F
CHENNAULT INT  CLOUDY    57  55  94 VRB5      30.23F
CAMERON PHI    CLOUDY    61  61 100 NE9       30.24F
DEQUINCY       NOT AVBL
JENNINGS       CLOUDY    54  53  97 NE8       30.23F
LAFAYETTE      CLOUDY    59  57  93 N8        30.22F FOG
NEW IBERIA     CLOUDY    64  63  96 N9        30.22F FOG
ABBEVILLE      FOG       62  62  99 NW7       30.22F VSB 1
PATTERSON      CLOUDY    77  70  78 SW8       30.21F
SALT POINT       N/A     73  69  87 VRB3      30.19F
$$

SELECTED SITES ACROSS THE REGION

CITY           SKY/WX    TMP DP  RH WIND       PRES   REMARKS
HOUSTON BUSH   CLOUDY    58  52  80 N5        30.22F
HOUSTON HOBBY  CLOUDY    61  54  77 NE6       30.20F
GALVESTON      CLOUDY    55  54  96 N9        30.22F FOG
COLLEGE STAT   CLOUDY    45  43  93 N8        30.26F FOG
CONROE         CLOUDY    52  49  89 N6        30.24F
HUNTSVILLE     CLOUDY    48  48 100 VRB6      30.24F FOG
LUFKIN         CLOUDY    51  47  86 NE5       30.25F FOG
SHREVEPORT     DRIZZLE   43  42  97 NE8       30.28F FOG
MONROE         CLOUDY    42  40  92 NE9       30.31F
NATCHEZ MS     CLOUDY    46  45  93 N7        30.27S
BATON ROUGE    FOG       65  64  97 NW5       30.21F VSB 3/4
N.O. INTL ARPT LGT RAIN  75  70  84 S6        30.20F
SLIDELL        CLOUDY    71  67  87 NE5       30.21F
$$

MARINE REPORTS

STATION/POSITION TIME  TEMP    WIND        PRES    VSBY  WAVE
                       AIR SEA DIR/SP/G                  HT/PER
                 (UTC) (F)     (DEG/KT/KT) (MB)    (MI)  (FT/S)
BUOY 30 S HIGH I 2000   55 58   40/  6/  8 1022.6F         2/ 6
SEA RIM ST PARK  2000   61      50/  7/  9 1023.3F
PORT ARTHUR      2000          100/  5/  7 1023.1F
SABINE PASS N    2000   61 53   40/  5/  9 1023.1F
TEXAS POINT      NOT AVBL
CALCASIEU PASS   2000   59 54   40/  8/  9   N/A
LK CHARLES BEACH 2000   57 58              1023.6F
MARSH ISLAND     NOT AVBL
FRESH WATER LOCK 2000   63 58  180/  4/  6 1022.9F
AMERADA PASS     2000   72 49  180/  5/  6 1022.6F
$$


USA.gov is the U.S. government's official web portal to all federal, state and local government web resources and services.